Voltar ao catálogo

VANGUARD R/B

AtivoUNKNOWN
NORAD 12·ROCKET BODY·🇺🇸 United States

Lançado Feb 17, 1959 de Cape Canaveral Space Force Station

Loading…

Próximas Passagens (próximas 24 horas)

TLE

AtualizadoSource: Space-Track

Época: Sep 8, 2026, 10:54 UTC

1 00012U 59001B   26251.45470932  .00000333  00000-0  18093-3 0  9991
2 00012  32.9007 291.6839 1644847 186.2447 171.4967 11.48643523540900

Acompanhe VANGUARD R/B em tempo real com AllMySat

Download on the App Store